"Pseudo-MPEC" for C913MQ2

Created 2023 Mar 22 16:22:07 UT using Find_Orb

Click here for an explanation of pseudo-MPECs

 
 Astrometry: 
     C913MQ2*1C2023 03 18.47509812 45 15.368+25 16 11.68   ~3IC7 19.96GVNEOCPG96
     C913MQ2 1C2023 03 18.48023212 45 26.694+25 17 33.47   ~3IC7 19.76GVNEOCPG96
     C913MQ2 1C2023 03 18.48536712 45 38.081+25 18 55.26   ~3IC7 19.69GVNEOCPG96
     C913MQ2 1C2023 03 18.49050712 45 49.356+25 20 16.62   ~3IC7 20.80GVNEOCPG96
     C913MQ2 1C2023 03 18.50117712 46 13.429+25 23 09.38   ~3ICM 21.17GVNEOCPG96
     C913MQ2 1C2023 03 18.50217012 46 15.654+25 23 24.65   ~3ICM 20.23GVNEOCPG96
     C913MQ2 1C2023 03 18.50241112 46 16.187+25 23 28.32   ~3ICM 20.39GVNEOCPG96

Station data:
(G96) Mt. Lemmon Survey  (N32.442751 W110.788720)  US/Arizona.  Observers T.
   A. Pruyne, B. M. Africano, E. J. Christensen, G. A. Farneth, D. C. Fuls,
   A. R. Gibbs, A. D. Grauer, H. Gröller, J. A. Johnson, R. A. Kowalski, S.
   M. Larson, G. J. Leonard, D. Rankin, R. L. Seaman, F. C. Shelly, K. W.
   Wierzchoś. 1.5-m reflector + 10K CCD.

Orbital elements:  C913MQ2
   Perihelion 2023 May 7.96247 TT = 23:05:57 (JD 2460072.46247)
Epoch 2023 Mar 18.0 TT = JDT 2460021.5   Earth MOID: 0.0040   Ma: 0.0082
M 323.34793674                      (J2000 ecliptic)             AutoNEOCP
n   0.71919712     Peri.  228.82857
a   1.23377913     Node    10.02423
e   0.2785135      Incl.    1.29924
P   1.37/500.55d   H   29.18    G   0.15   q 0.89015487  Q 1.57740339
From 7 observations 2023 Mar. 18 (39.3 min); mean residual 0".75
Residuals in arcseconds: 
230318 G96  .18-  .67+    230318 G96  .19-  .96-    230318 G96  .39+  .02+    
230318 G96  .98+  .33+    230318 G96  .95+  .86+    
230318 G96  1.8+  .04-    230318 G96  .58+  .21+    

Ephemerides (geocentric):
Date (UTC) HH   RA             Dec           delta  r     elong  mag
---- --------  ------------   ------------  ------ ------ -----  ---
2023 03 22 16  21 40 05.631   +05 27 31.73  .00981 .98851  36.6 26??
2023 03 22 17  21 41 44.610   +05 09 17.48  .00997 .98835  36.2 26??
2023 03 22 18  21 43 20.394   +04 51 36.69  .01013 .98820  35.8 26??
2023 03 22 19  21 44 53.128   +04 34 28.07  .01029 .98804  35.4 26??
2023 03 22 20  21 46 22.946   +04 17 50.35  .01045 .98788  35.0 26??
2023 03 22 21  21 47 49.978   +04 01 42.33  .01061 .98772  34.7 26??
2023 03 22 22  21 49 14.346   +03 46 02.84  .01077 .98757  34.4 27??
2023 03 22 23  21 50 36.164   +03 30 50.78  .01094 .98741  34.0 27??
2023 03 23 00  21 51 55.541   +03 16 05.09  .01110 .98725  33.7 27??
2023 03 23 01  21 53 12.581   +03 01 44.76  .01126 .98710  33.4 27??
2023 03 23 02  21 54 27.381   +02 47 48.82  .01143 .98694  33.1 27??
2023 03 23 03  21 55 40.033   +02 34 16.35  .01159 .98678  32.9 27??
2023 03 23 04  21 56 50.626   +02 21 06.46  .01176 .98663  32.6 27??
2023 03 23 05  21 57 59.242   +02 08 18.29  .01193 .98647  32.3 27??
2023 03 23 06  21 59 05.961   +01 55 51.05  .01209 .98631  32.1 27??
2023 03 23 07  22 00 10.858   +01 43 43.96  .01226 .98616  31.9 27??
2023 03 23 08  22 01 14.004   +01 31 56.27  .01243 .98600  31.6 27??
2023 03 23 09  22 02 15.466   +01 20 27.29  .01259 .98584  31.4 27??
2023 03 23 10  22 03 15.309   +01 09 16.32  .01276 .98569  31.2 27??
2023 03 23 11  22 04 13.596   +00 58 22.73  .01293 .98553  31.0 27??
2023 03 23 12  22 05 10.383   +00 47 45.89  .01310 .98538  30.8 28??
2023 03 23 13  22 06 05.726   +00 37 25.22  .01327 .98522  30.6 28??
2023 03 23 14  22 06 59.679   +00 27 20.13  .01344 .98506  30.4 28??
2023 03 23 15  22 07 52.292   +00 17 30.10  .01361 .98491  30.2 28??
2023 03 23 16  22 08 43.614   +00 07 54.60  .01378 .98475  30.1 28??
2023 03 23 17  22 09 33.689   -00 01 26.87  .01395 .98460  29.9 28??
2023 03 23 18  22 10 22.563   -00 10 34.79  .01412 .98444  29.7 28??
2023 03 23 19  22 11 10.276   -00 19 29.61  .01429 .98429  29.6 28??
2023 03 23 20  22 11 56.870   -00 28 11.77  .01446 .98413  29.4 28??
2023 03 23 21  22 12 42.382   -00 36 41.68  .01463 .98398  29.3 28??
2023 03 23 22  22 13 26.848   -00 44 59.76  .01480 .98382  29.2 28??
2023 03 23 23  22 14 10.304   -00 53 06.39  .01497 .98367  29.0 28??
2023 03 24 00  22 14 52.784   -01 01 01.94  .01515 .98351  28.9 28??
2023 03 24 01  22 15 34.319   -01 08 46.77  .01532 .98336  28.8 28??
2023 03 24 02  22 16 14.940   -01 16 21.21  .01549 .98320  28.7 28??
2023 03 24 03  22 16 54.677   -01 23 45.59  .01566 .98305  28.5 28??
2023 03 24 04  22 17 33.557   -01 31 00.23  .01584 .98289  28.4 28??
2023 03 24 05  22 18 11.608   -01 38 05.43  .01601 .98274  28.3 28??
2023 03 24 06  22 18 48.856   -01 45 01.48  .01618 .98259  28.2 28??
2023 03 24 07  22 19 25.326   -01 51 48.67  .01636 .98243  28.1 29??
2023 03 24 08  22 20 01.041   -01 58 27.25  .01653 .98228  28.0 29??
2023 03 24 09  22 20 36.025   -02 04 57.48  .01670 .98212  27.9 29??
2023 03 24 10  22 21 10.299   -02 11 19.62  .01688 .98197  27.8 29??
2023 03 24 11  22 21 43.885   -02 17 33.91  .01705 .98181  27.8 29??
2023 03 24 12  22 22 16.804   -02 23 40.56  .01723 .98166  27.7 29??
2023 03 24 13  22 22 49.074   -02 29 39.81  .01740 .98151  27.6 29??
2023 03 24 14  22 23 20.714   -02 35 31.87  .01758 .98135  27.5 29??
2023 03 24 15  22 23 51.744   -02 41 16.95  .01775 .98120  27.4 29??